Location: Epalinges
(46.5518°N, 6.6683°E)
Time: 02:44:08
(UTC+00:00)

OE (NEXTSAT) - Pass Details

Date: 20 June 2021
Orbit: 425 x 430 km, 46.0° (Epoch: 04 August)

Event Time Altitude Azimuth Distance (km) Brightness Sun altitude
Exits shadow 01:22:20 26° 256° (WSW) 887 5.5 -15.9°
Maximum altitude 01:24:09 78° 174° (S) 441 4.2 -15.8°
Drops below altitude 10° 01:27:35 10° 87° (E) 1,520 7.5 -15.5°
Sets 01:29:42 0° 86° (E) 2,385 8.5 -15.4°
